Location: downtown San Diego
(32.7310°N, 117.1990°W)
Time: 17:33:34
(UTC-07:00)

Cosmos 773 Rocket - Pass Details

Date: 19 May 2017
Orbit: 745 x 777 km, 74.1° (Epoch: 25 July)

Event Time Altitude Azimuth Distance (km) Brightness Sun altitude
Exits shadow 21:24:52 - 198° (SSW) 3,037 6.9 -18.8°
Reaches altitude 10° 21:26:49 10° 199° (SSW) 2,271 6.2 -19.1°
Maximum altitude 21:31:58 82° 285° (WNW) 762 4.0 -19.9°
Drops below altitude 10° 21:37:07 10° 15° (NNE) 2,268 6.8 -20.7°
Sets 21:39:29 0° 16° (NNE) 3,193 7.6 -21.1°
